Location: Amarillo Post Office Jordan Station
(35.1907°N, 101.9342°W)
Time: 13:16:58
(UTC+00:00)

Spot 2 - Pass Details

Date: 24 January 2021
Orbit: 570 x 774 km, 98.8° (Epoch: 03 March)

Event Time Altitude Azimuth Distance (km) Brightness Sun altitude
Rises 12:46:49 0° 15° (NNE) 2,778 7.4 -13.4°
Reaches altitude 10° 12:48:57 10° 16° (NNE) 1,879 6.6 -13.0°
Maximum altitude 12:52:59 76° 103° (ESE) 598 4.1 -12.2°
Drops below altitude 10° 12:57:07 10° 189° (S) 1,915 6.7 -11.4°
Sets 12:59:18 0° 191° (S) 2,836 7.5 -11.0°
